Time,TemperatureF,DewpointF,PressureIn,WindDirection,WindDirectionDegrees,WindSpeedMPH,WindSpeedGustMPH,Humidity,HourlyPrecipIn,Conditions,Clouds,dailyrainin,SoftwareType,DateUTC
2013-02-28 00:00:00,32.5,31.7,29.59,SSW,201,0.0,0.0,97,0.00,,,0.44,Wunderground v.1.15,2013-02-28 05:00:00,
2013-02-28 00:05:00,32.5,31.7,29.59,WSW,238,1.0,1.0,97,0.00,,,0.00,Wunderground v.1.15,2013-02-28 05:05:00,
2013-02-28 00:10:00,32.5,31.7,29.59,SW,217,1.0,1.0,97,0.00,,,0.00,Wunderground v.1.15,2013-02-28 05:10:00,
2013-02-28 00:15:00,32.5,31.7,29.59,West,270,1.0,1.0,97,0.00,,,0.00,Wunderground v.1.15,2013-02-28 05:15:00,
2013-02-28 00:20:00,32.5,31.7,29.59,SSW,194,0.0,1.0,97,0.00,,,0.00,Wunderground v.1.15,2013-02-28 05:20:00,
2013-02-28 00:25:00,32.5,31.7,29.59,WSW,245,1.0,1.0,97,0.00,,,0.00,Wunderground v.1.15,2013-02-28 05:25:00,
2013-02-28 00:35:00,32.5,31.7,29.58,West,259,0.0,1.0,97,0.00,,,0.00,Wunderground v.1.15,2013-02-28 05:35:00,
2013-02-28 00:40:00,32.5,31.7,29.59,SW,217,1.0,1.0,97,0.00,,,0.00,Wunderground v.1.15,2013-02-28 05:40:00,
2013-02-28 00:45:00,32.5,31.7,29.59,South,186,0.0,1.0,97,0.00,,,0.00,Wunderground v.1.15,2013-02-28 05:45:00,
2013-02-28 00:50:00,32.5,31.7,29.59,WSW,253,1.0,1.0,97,0.00,,,0.00,Wunderground v.1.15,2013-02-28 05:50:00,
2013-02-28 00:55:00,32.5,31.7,29.59,West,262,1.0,1.0,97,0.00,,,0.01,Wunderground v.1.15,2013-02-28 05:55:00,
2013-02-28 01:00:00,32.5,31.7,29.58,WSW,246,1.0,1.0,97,0.00,,,0.01,Wunderground v.1.15,2013-02-28 06:00:00,
2013-02-28 01:10:00,32.4,31.6,29.58,SW,229,1.0,1.0,97,0.00,,,0.01,Wunderground v.1.15,2013-02-28 06:10:00,
2013-02-28 01:15:00,32.5,31.7,29.59,SW,233,1.0,1.0,97,0.00,,,0.01,Wunderground v.1.15,2013-02-28 06:15:00,
2013-02-28 01:20:00,32.4,31.6,29.59,West,262,1.0,1.0,97,0.00,,,0.01,Wunderground v.1.15,2013-02-28 06:20:00,
2013-02-28 01:25:00,32.4,31.6,29.59,WSW,249,1.0,2.0,97,0.00,,,0.01,Wunderground v.1.15,2013-02-28 06:25:00,
2013-02-28 01:30:00,32.4,31.6,29.59,SW,231,1.0,1.0,97,0.00,,,0.01,Wunderground v.1.15,2013-02-28 06:30:00,
2013-02-28 01:40:00,32.4,31.6,29.59,WNW,296,1.0,1.0,97,0.00,,,0.01,Wunderground v.1.15,2013-02-28 06:40:00,
2013-02-28 01:45:00,32.4,31.6,29.59,West,260,1.0,1.0,97,0.00,,,0.01,Wunderground v.1.15,2013-02-28 06:45:00,
2013-02-28 01:55:00,32.4,31.6,29.59,West,264,1.0,1.0,97,0.00,,,0.01,Wunderground v.1.15,2013-02-28 06:55:00,
2013-02-28 02:00:00,32.4,31.6,29.59,WSW,240,0.0,0.0,97,0.00,,,0.01,Wunderground v.1.15,2013-02-28 07:00:00,
2013-02-28 02:10:00,32.5,31.7,29.59,WSW,243,0.0,0.0,97,0.00,,,0.01,Wunderground v.1.15,2013-02-28 07:10:00,
2013-02-28 02:15:00,32.5,31.7,29.59,SW,224,0.0,0.0,97,0.00,,,0.01,Wunderground v.1.15,2013-02-28 07:15:00,
2013-02-28 02:20:00,32.5,31.7,29.59,SW,222,0.0,0.0,97,0.00,,,0.01,Wunderground v.1.15,2013-02-28 07:20:00,
2013-02-28 02:25:00,32.5,31.7,29.59,SW,222,0.0,0.0,97,0.00,,,0.01,Wunderground v.1.15,2013-02-28 07:25:00,
2013-02-28 02:30:00,32.5,31.7,29.59,SW,222,0.0,0.0,97,0.00,,,0.01,Wunderground v.1.15,2013-02-28 07:30:00,
2013-02-28 02:35:00,32.5,31.7,29.59,WSW,257,0.0,0.0,97,0.00,,,0.01,Wunderground v.1.15,2013-02-28 07:35:00,
2013-02-28 02:45:00,32.5,31.7,29.59,SSW,198,0.0,0.0,97,0.00,,,0.01,Wunderground v.1.15,2013-02-28 07:45:00,
2013-02-28 02:50:00,32.5,31.7,29.59,WSW,245,0.0,0.0,97,0.00,,,0.01,Wunderground v.1.15,2013-02-28 07:50:00,
2013-02-28 02:55:00,32.5,32.0,29.59,WSW,239,0.0,0.0,98,0.00,,,0.01,Wunderground v.1.15,2013-02-28 07:55:00,
2013-02-28 03:05:00,32.5,32.0,29.59,SW,232,0.0,0.0,98,0.00,,,0.01,Wunderground v.1.15,2013-02-28 08:05:00,
2013-02-28 03:15:00,32.6,32.1,29.59,West,264,0.0,0.0,98,0.00,,,0.01,Wunderground v.1.15,2013-02-28 08:15:00,
2013-02-28 03:20:00,32.7,32.2,29.59,West,264,0.0,0.0,98,0.00,,,0.01,Wunderground v.1.15,2013-02-28 08:20:00,
2013-02-28 03:25:00,32.7,32.2,29.59,West,269,0.0,0.0,98,0.00,,,0.01,Wunderground v.1.15,2013-02-28 08:25:00,
2013-02-28 03:30:00,32.7,32.2,29.59,West,267,0.0,0.0,98,0.00,,,0.01,Wunderground v.1.15,2013-02-28 08:30:00,
2013-02-28 03:40:00,32.7,32.2,29.59,WSW,257,0.0,0.0,98,0.00,,,0.01,Wunderground v.1.15,2013-02-28 08:40:00,
2013-02-28 03:45:00,32.8,32.3,29.59,WNW,295,0.0,0.0,98,0.00,,,0.01,Wunderground v.1.15,2013-02-28 08:45:00,
2013-02-28 03:50:00,32.8,32.3,29.59,WNW,288,0.0,0.0,98,0.00,,,0.01,Wunderground v.1.15,2013-02-28 08:50:00,
2013-02-28 03:55:00,32.8,32.3,29.59,WSW,256,0.0,0.0,98,0.00,,,0.01,Wunderground v.1.15,2013-02-28 08:55:00,
2013-02-28 04:00:00,32.8,32.3,29.59,WSW,256,0.0,0.0,98,0.00,,,0.01,Wunderground v.1.15,2013-02-28 09:00:00,
2013-02-28 04:10:00,32.6,32.1,29.59,WNW,301,0.0,0.0,98,0.00,,,0.01,Wunderground v.1.15,2013-02-28 09:10:00,
2013-02-28 04:15:00,32.6,32.1,29.59,WNW,283,0.0,1.0,98,0.00,,,0.01,Wunderground v.1.15,2013-02-28 09:15:00,
2013-02-28 04:20:00,32.5,32.0,29.59,West,276,0.0,0.0,98,0.00,,,0.01,Wunderground v.1.15,2013-02-28 09:20:00,
2013-02-28 04:25:00,32.5,32.0,29.59,NW,304,0.0,1.0,98,0.00,,,0.01,Wunderground v.1.15,2013-02-28 09:25:00,
2013-02-28 04:30:00,32.5,32.0,29.59,WNW,285,0.0,1.0,98,0.00,,,0.01,Wunderground v.1.15,2013-02-28 09:30:00,
2013-02-28 04:40:00,32.5,32.0,29.59,WNW,291,1.0,1.0,98,0.00,,,0.01,Wunderground v.1.15,2013-02-28 09:40:00,
2013-02-28 04:45:00,32.5,32.0,29.59,WNW,297,1.0,1.0,98,0.00,,,0.01,Wunderground v.1.15,2013-02-28 09:45:00,
2013-02-28 04:50:00,32.5,32.0,29.59,NW,306,0.0,1.0,98,0.00,,,0.01,Wunderground v.1.15,2013-02-28 09:50:00,
2013-02-28 04:55:00,32.6,32.1,29.60,NW,326,1.0,3.0,98,0.00,,,0.01,Wunderground v.1.15,2013-02-28 09:55:00,
2013-02-28 05:00:00,32.6,32.1,29.60,WNW,284,1.0,1.0,98,0.00,,,0.01,Wunderground v.1.15,2013-02-28 10:00:00,
2013-02-28 05:10:00,32.6,32.1,29.60,NNW,342,1.0,1.0,98,0.00,,,0.01,Wunderground v.1.15,2013-02-28 10:10:00,
2013-02-28 05:15:00,32.5,32.0,29.61,NW,325,1.0,1.0,98,0.00,,,0.01,Wunderground v.1.15,2013-02-28 10:15:00,
2013-02-28 05:25:00,32.5,32.0,29.61,WNW,300,1.0,1.0,98,0.00,,,0.01,Wunderground v.1.15,2013-02-28 10:25:00,
2013-02-28 05:30:00,32.5,32.0,29.61,NW,304,1.0,3.0,98,0.00,,,0.01,Wunderground v.1.15,2013-02-28 10:30:00,
2013-02-28 05:40:00,32.5,32.0,29.61,NW,308,1.0,2.0,98,0.00,,,0.01,Wunderground v.1.15,2013-02-28 10:40:00,
2013-02-28 05:45:00,32.5,32.0,29.61,NNW,348,1.0,3.0,98,0.00,,,0.01,Wunderground v.1.15,2013-02-28 10:45:00,
2013-02-28 05:50:00,32.6,32.1,29.61,NNW,337,2.0,3.0,98,0.00,,,0.01,Wunderground v.1.15,2013-02-28 10:50:00,
2013-02-28 06:00:00,32.7,31.9,29.61,WNW,290,2.0,2.0,97,0.00,,,0.01,Wunderground v.1.15,2013-02-28 11:00:00,
2013-02-28 09:00:00,34.0,32.5,29.69,North,354,3.0,3.0,94,0.00,,,0.02,Wunderground v.1.15,2013-02-28 14:00:00,
2013-02-28 09:10:00,34.3,32.8,29.69,NNW,340,4.0,5.0,94,0.00,,,0.02,Wunderground v.1.15,2013-02-28 14:10:00,
2013-02-28 09:15:00,34.4,32.9,29.69,NW,316,4.0,5.0,94,0.00,,,0.02,Wunderground v.1.15,2013-02-28 14:15:00,
2013-02-28 09:20:00,34.5,33.0,29.70,NNE,18,4.0,4.0,94,0.00,,,0.02,Wunderground v.1.15,2013-02-28 14:20:00,
2013-02-28 09:25:00,34.6,33.1,29.70,WNW,291,4.0,4.0,94,0.00,,,0.03,Wunderground v.1.15,2013-02-28 14:25:00,
2013-02-28 09:35:00,34.6,33.1,29.70,NNW,327,4.0,9.0,94,0.00,,,0.03,Wunderground v.1.15,2013-02-28 14:35:00,
2013-02-28 09:40:00,34.8,33.2,29.70,North,353,4.0,9.0,94,0.04,,,0.04,Wunderground v.1.15,2013-02-28 14:40:00,
2013-02-28 09:45:00,34.9,33.3,29.70,North,354,5.0,9.0,94,0.04,,,0.04,Wunderground v.1.15,2013-02-28 14:45:00,
2013-02-28 09:55:00,35.3,33.5,29.70,NNW,338,6.0,6.0,93,0.09,,,0.06,Wunderground v.1.15,2013-02-28 14:55:00,
2013-02-28 10:00:00,35.5,33.4,29.71,NNW,335,4.0,4.0,92,0.10,,,0.07,Wunderground v.1.15,2013-02-28 15:00:00,
2013-02-28 10:05:00,35.7,33.6,29.71,NE,44,4.0,5.0,92,0.10,,,0.07,Wunderground v.1.15,2013-02-28 15:05:00,
2013-02-28 10:10:00,35.6,33.0,29.71,NNW,335,5.0,5.0,90,0.09,,,0.08,Wunderground v.1.15,2013-02-28 15:10:00,
2013-02-28 10:15:00,35.5,32.9,29.72,NE,36,6.0,6.0,90,0.09,,,0.09,Wunderground v.1.15,2013-02-28 15:15:00,
2013-02-28 10:25:00,35.5,32.9,29.72,North,1,7.0,7.0,90,0.08,,,0.10,Wunderground v.1.15,2013-02-28 15:25:00,
2013-02-28 10:30:00,35.4,32.8,29.72,NNW,327,6.0,6.0,90,0.08,,,0.11,Wunderground v.1.15,2013-02-28 15:30:00,
2013-02-28 10:35:00,35.5,32.9,29.72,NW,311,5.0,6.0,90,0.07,,,0.11,Wunderground v.1.15,2013-02-28 15:35:00,
2013-02-28 10:45:00,35.7,32.5,29.72,North,351,6.0,9.0,88,0.07,,,0.13,Wunderground v.1.15,2013-02-28 15:45:00,
2013-02-28 10:50:00,36.1,32.9,29.73,NNW,328,5.0,7.0,88,0.07,,,0.13,Wunderground v.1.15,2013-02-28 15:50:00,
2013-02-28 10:55:00,36.5,33.3,29.73,North,11,4.0,7.0,88,0.09,,,0.14,Wunderground v.1.15,2013-02-28 15:55:00,
2013-02-28 11:00:00,36.5,33.3,29.73,NNW,335,4.0,5.0,88,0.09,,,0.15,Wunderground v.1.15,2013-02-28 16:00:00,
2013-02-28 11:10:00,36.4,33.2,29.73,NW,310,4.0,4.0,88,0.07,,,0.16,Wunderground v.1.15,2013-02-28 16:10:00,
2013-02-28 11:15:00,36.4,32.9,29.74,NNW,342,6.0,9.0,87,0.08,,,0.17,Wunderground v.1.15,2013-02-28 16:15:00,
2013-02-28 11:20:00,36.4,32.9,29.74,NNW,341,7.0,10.0,87,0.08,,,0.17,Wunderground v.1.15,2013-02-28 16:20:00,
2013-02-28 11:25:00,36.3,32.8,29.74,NE,44,6.0,10.0,87,0.09,,,0.18,Wunderground v.1.15,2013-02-28 16:25:00,
2013-02-28 11:30:00,36.3,32.5,29.74,NNE,18,6.0,9.0,86,0.07,,,0.19,Wunderground v.1.15,2013-02-28 16:30:00,
2013-02-28 11:40:00,36.2,32.4,29.75,NNW,327,8.0,8.0,86,0.06,,,0.20,Wunderground v.1.15,2013-02-28 16:40:00,
2013-02-28 11:45:00,36.4,32.6,29.75,ENE,59,6.0,8.0,86,0.06,,,0.20,Wunderground v.1.15,2013-02-28 16:45:00,
2013-02-28 11:50:00,36.7,32.6,29.75,NNW,337,7.0,7.0,85,0.06,,,0.21,Wunderground v.1.15,2013-02-28 16:50:00,
2013-02-28 11:55:00,36.8,32.7,29.75,NNE,19,7.0,9.0,85,0.06,,,0.21,Wunderground v.1.15,2013-02-28 16:55:00,
2013-02-28 12:00:00,36.8,33.0,29.76,NNE,14,6.0,12.0,86,0.07,,,0.22,Wunderground v.1.15,2013-02-28 17:00:00,
2013-02-28 12:10:00,36.5,32.4,29.75,NNW,339,8.0,8.0,85,0.07,,,0.23,Wunderground v.1.15,2013-02-28 17:10:00,
2013-02-28 12:15:00,36.9,32.5,29.76,NNE,12,7.0,11.0,84,0.07,,,0.23,Wunderground v.1.15,2013-02-28 17:15:00,
2013-02-28 12:20:00,37.3,32.3,29.76,NW,326,8.0,8.0,82,0.07,,,0.24,Wunderground v.1.15,2013-02-28 17:20:00,
2013-02-28 12:25:00,37.5,32.2,29.76,North,4,8.0,8.0,81,0.08,,,0.25,Wunderground v.1.15,2013-02-28 17:25:00,
2013-02-28 12:30:00,37.2,31.6,29.76,NNE,25,9.0,9.0,80,0.08,,,0.25,Wunderground v.1.15,2013-02-28 17:30:00,
2013-02-28 12:35:00,37.5,32.2,29.76,NE,37,8.0,9.0,81,0.05,,,0.26,Wunderground v.1.15,2013-02-28 17:35:00,
2013-02-28 12:45:00,36.7,32.0,29.76,NW,322,8.0,8.0,83,0.06,,,0.26,Wunderground v.1.15,2013-02-28 17:45:00,
2013-02-28 12:50:00,36.9,31.9,29.76,NNW,327,7.0,7.0,82,0.06,,,0.27,Wunderground v.1.15,2013-02-28 17:50:00,
2013-02-28 12:55:00,36.9,31.9,29.76,WNW,295,7.0,8.0,82,0.06,,,0.28,Wunderground v.1.15,2013-02-28 17:55:00,
2013-02-28 13:00:00,36.4,32.0,29.77,WNW,302,8.0,12.0,84,0.06,,,0.28,Wunderground v.1.15,2013-02-28 18:00:00,
2013-02-28 13:10:00,36.3,31.3,29.77,NNW,331,8.0,12.0,82,0.04,,,0.28,Wunderground v.1.15,2013-02-28 18:10:00,
2013-02-28 13:15:00,36.3,31.0,29.77,North,4,8.0,12.0,81,0.00,,,0.29,Wunderground v.1.15,2013-02-28 18:15:00,
2013-02-28 13:20:00,36.6,31.0,29.77,NNE,14,8.0,8.0,80,0.00,,,0.29,Wunderground v.1.15,2013-02-28 18:20:00,
2013-02-28 13:25:00,37.1,31.5,29.77,NNE,32,7.0,8.0,80,0.00,,,0.29,Wunderground v.1.15,2013-02-28 18:25:00,
2013-02-28 13:30:00,37.0,31.4,29.78,NNW,335,6.0,6.0,80,0.04,,,0.30,Wunderground v.1.15,2013-02-28 18:30:00,
2013-02-28 13:40:00,36.7,31.1,29.78,NW,321,8.0,8.0,80,0.04,,,0.30,Wunderground v.1.15,2013-02-28 18:40:00,
2013-02-28 13:45:00,36.8,30.9,29.78,NNW,342,6.0,10.0,79,0.04,,,0.31,Wunderground v.1.15,2013-02-28 18:45:00,
2013-02-28 13:50:00,36.7,31.1,29.78,NNE,26,7.0,7.0,80,0.04,,,0.31,Wunderground v.1.15,2013-02-28 18:50:00,
2013-02-28 13:55:00,36.8,31.2,29.78,NNE,20,7.0,7.0,80,0.04,,,0.31,Wunderground v.1.15,2013-02-28 18:55:00,
2013-02-28 14:00:00,36.1,31.4,29.79,NNW,333,6.0,6.0,83,0.04,,,0.31,Wunderground v.1.15,2013-02-28 19:00:00,
2013-02-28 14:10:00,35.8,31.1,29.79,North,1,8.0,8.0,83,0.00,,,0.31,Wunderground v.1.15,2013-02-28 19:10:00,
2013-02-28 14:15:00,36.0,31.0,29.79,NNE,13,9.0,9.0,82,0.00,,,0.31,Wunderground v.1.15,2013-02-28 19:15:00,
2013-02-28 14:20:00,36.4,31.4,29.79,NNW,335,8.0,13.0,82,0.00,,,0.31,Wunderground v.1.15,2013-02-28 19:20:00,
2013-02-28 14:25:00,36.3,30.7,29.79,NW,318,7.0,13.0,80,0.00,,,0.31,Wunderground v.1.15,2013-02-28 19:25:00,
2013-02-28 14:30:00,36.0,30.7,29.80,NE,37,9.0,9.0,81,0.00,,,0.32,Wunderground v.1.15,2013-02-28 19:30:00,
2013-02-28 14:40:00,35.9,30.6,29.80,NNE,30,8.0,12.0,81,0.00,,,0.32,Wunderground v.1.15,2013-02-28 19:40:00,
2013-02-28 14:45:00,36.0,30.7,29.80,NNE,32,8.0,12.0,81,0.00,,,0.32,Wunderground v.1.15,2013-02-28 19:45:00,
2013-02-28 14:50:00,36.0,30.1,29.80,NNE,26,8.0,8.0,79,0.00,,,0.33,Wunderground v.1.15,2013-02-28 19:50:00,
2013-02-28 14:55:00,36.0,30.4,29.80,NW,309,8.0,8.0,80,0.00,,,0.33,Wunderground v.1.15,2013-02-28 19:55:00,
2013-02-28 15:00:00,36.0,30.4,29.81,North,354,6.0,6.0,80,0.00,,,0.33,Wunderground v.1.15,2013-02-28 20:00:00,
2013-02-28 15:10:00,35.8,30.2,29.81,NW,322,7.0,7.0,80,0.00,,,0.34,Wunderground v.1.15,2013-02-28 20:10:00,
2013-02-28 15:15:00,35.5,29.9,29.81,NNE,27,8.0,8.0,80,0.00,,,0.34,Wunderground v.1.15,2013-02-28 20:15:00,
2013-02-28 15:20:00,35.5,30.2,29.82,NNW,327,9.0,9.0,81,0.00,,,0.34,Wunderground v.1.15,2013-02-28 20:20:00,
2013-02-28 15:25:00,35.6,29.7,29.82,NW,316,8.0,10.0,79,0.00,,,0.34,Wunderground v.1.15,2013-02-28 20:25:00,
2013-02-28 15:30:00,35.5,29.9,29.82,NW,306,7.0,7.0,80,0.00,,,0.34,Wunderground v.1.15,2013-02-28 20:30:00,
2013-02-28 15:40:00,35.3,30.1,29.82,NNW,343,6.0,6.0,81,0.00,,,0.35,Wunderground v.1.15,2013-02-28 20:40:00,
2013-02-28 15:45:00,35.2,30.0,29.83,NE,38,6.0,6.0,81,0.00,,,0.35,Wunderground v.1.15,2013-02-28 20:45:00,
2013-02-28 15:50:00,35.1,29.6,29.83,WNW,287,6.0,6.0,80,0.00,,,0.35,Wunderground v.1.15,2013-02-28 20:50:00,
2013-02-28 15:55:00,34.9,29.7,29.83,West,274,6.0,9.0,81,0.00,,,0.35,Wunderground v.1.15,2013-02-28 20:55:00,
2013-02-28 16:05:00,34.6,29.4,29.84,NW,318,7.0,9.0,81,0.00,,,0.35,Wunderground v.1.15,2013-02-28 21:05:00,
2013-02-28 16:10:00,34.6,29.4,29.84,WNW,300,5.0,5.0,81,0.00,,,0.35,Wunderground v.1.15,2013-02-28 21:10:00,
2013-02-28 16:15:00,34.5,29.6,29.84,NW,316,4.0,5.0,82,0.00,,,0.35,Wunderground v.1.15,2013-02-28 21:15:00,
2013-02-28 16:20:00,34.5,29.6,29.84,NNW,339,4.0,4.0,82,0.00,,,0.36,Wunderground v.1.15,2013-02-28 21:20:00,
2013-02-28 16:25:00,34.3,29.1,29.84,North,354,5.0,8.0,81,0.00,,,0.36,Wunderground v.1.15,2013-02-28 21:25:00,
2013-02-28 16:35:00,34.2,29.3,29.85,NNE,33,5.0,7.0,82,0.00,,,0.36,Wunderground v.1.15,2013-02-28 21:35:00,
2013-02-28 16:40:00,34.2,29.3,29.85,NNW,348,4.0,5.0,82,0.00,,,0.36,Wunderground v.1.15,2013-02-28 21:40:00,
2013-02-28 16:45:00,34.1,29.2,29.85,WNW,300,4.0,5.0,82,0.00,,,0.36,Wunderground v.1.15,2013-02-28 21:45:00,
2013-02-28 16:50:00,34.1,29.2,29.86,NNE,30,4.0,4.0,82,0.00,,,0.36,Wunderground v.1.15,2013-02-28 21:50:00,
2013-02-28 16:55:00,34.1,29.5,29.86,NW,322,3.0,4.0,83,0.00,,,0.36,Wunderground v.1.15,2013-02-28 21:55:00,
2013-02-28 17:05:00,34.0,28.8,29.86,NNE,12,5.0,13.0,81,0.00,,,0.36,Wunderground v.1.15,2013-02-28 22:05:00,
2013-02-28 17:10:00,34.0,29.1,29.87,NNW,328,6.0,6.0,82,0.00,,,0.36,Wunderground v.1.15,2013-02-28 22:10:00,
2013-02-28 17:15:00,33.9,29.0,29.87,NE,40,6.0,6.0,82,0.00,,,0.36,Wunderground v.1.15,2013-02-28 22:15:00,
2013-02-28 17:20:00,33.8,28.6,29.87,NNW,342,7.0,7.0,81,0.00,,,0.36,Wunderground v.1.15,2013-02-28 22:20:00,
2013-02-28 17:25:00,33.7,28.5,29.88,NNW,345,7.0,7.0,81,0.00,,,0.36,Wunderground v.1.15,2013-02-28 22:25:00,
2013-02-28 17:35:00,33.6,28.7,29.88,NNE,23,5.0,6.0,82,0.00,,,0.36,Wunderground v.1.15,2013-02-28 22:35:00,
2013-02-28 17:40:00,33.5,28.3,29.89,NW,325,4.0,5.0,81,0.00,,,0.36,Wunderground v.1.15,2013-02-28 22:40:00,
2013-02-28 17:45:00,33.4,28.2,29.89,NNE,15,5.0,5.0,81,0.00,,,0.36,Wunderground v.1.15,2013-02-28 22:45:00,
2013-02-28 17:50:00,33.3,28.4,29.89,NE,36,6.0,7.0,82,0.00,,,0.36,Wunderground v.1.15,2013-02-28 22:50:00,
2013-02-28 18:00:00,33.0,28.7,29.90,NNW,342,5.0,5.0,84,0.00,,,0.36,Wunderground v.1.15,2013-02-28 23:00:00,
2013-02-28 18:05:00,32.8,28.5,29.90,WNW,300,4.0,5.0,84,0.00,,,0.36,Wunderground v.1.15,2013-02-28 23:05:00,
2013-02-28 18:10:00,32.8,28.8,29.90,North,360,4.0,10.0,85,0.00,,,0.36,Wunderground v.1.15,2013-02-28 23:10:00,
2013-02-28 18:20:00,32.6,28.6,29.91,North,356,5.0,6.0,85,0.00,,,0.36,Wunderground v.1.15,2013-02-28 23:20:00,
2013-02-28 18:25:00,32.5,28.5,29.91,North,354,5.0,6.0,85,0.00,,,0.36,Wunderground v.1.15,2013-02-28 23:25:00,
2013-02-28 18:30:00,32.3,28.3,29.91,NNW,344,7.0,7.0,85,0.00,,,0.36,Wunderground v.1.15,2013-02-28 23:30:00,
2013-02-28 18:35:00,32.2,28.5,29.92,NW,316,6.0,7.0,86,0.00,,,0.36,Wunderground v.1.15,2013-02-28 23:35:00,
2013-02-28 18:45:00,32.0,28.6,29.92,NNW,336,4.0,5.0,87,0.00,,,0.36,Wunderground v.1.15,2013-02-28 23:45:00,
2013-02-28 18:50:00,32.0,28.3,29.92,NW,304,4.0,4.0,86,0.00,,,0.36,Wunderground v.1.15,2013-02-28 23:50:00,
2013-02-28 18:55:00,32.0,28.3,29.92,NW,307,5.0,5.0,86,0.00,,,0.36,Wunderground v.1.15,2013-02-28 23:55:00,
2013-02-28 19:00:00,32.1,28.4,29.92,NNW,339,5.0,5.0,86,0.00,,,0.36,Wunderground v.1.15,2013-03-01 00:00:00,
2013-02-28 19:10:00,32.1,28.4,29.93,NNE,23,6.0,6.0,86,0.00,,,0.36,Wunderground v.1.15,2013-03-01 00:10:00,
2013-02-28 19:15:00,32.1,28.4,29.93,NNW,341,5.0,6.0,86,0.00,,,0.36,Wunderground v.1.15,2013-03-01 00:15:00,
2013-02-28 19:20:00,32.1,28.4,29.93,NNW,344,4.0,4.0,86,0.00,,,0.36,Wunderground v.1.15,2013-03-01 00:20:00,
2013-02-28 19:25:00,32.1,28.4,29.93,NNW,340,3.0,4.0,86,0.00,,,0.36,Wunderground v.1.15,2013-03-01 00:25:00,
2013-02-28 19:30:00,32.1,28.7,29.94,NNW,338,3.0,3.0,87,0.00,,,0.36,Wunderground v.1.15,2013-03-01 00:30:00,
2013-02-28 19:40:00,31.8,28.4,29.94,NNE,33,5.0,5.0,87,0.00,,,0.36,Wunderground v.1.15,2013-03-01 00:40:00,
2013-02-28 19:45:00,31.6,28.5,29.95,NNE,18,6.0,8.0,88,0.00,,,0.36,Wunderground v.1.15,2013-03-01 00:45:00,
2013-02-28 19:50:00,31.5,28.4,29.95,NNW,339,5.0,5.0,88,0.00,,,0.36,Wunderground v.1.15,2013-03-01 00:50:00,
2013-02-28 19:55:00,31.4,28.3,29.95,North,5,5.0,5.0,88,0.00,,,0.36,Wunderground v.1.15,2013-03-01 00:55:00,
2013-02-28 20:00:00,31.2,28.3,29.95,NNE,28,5.0,7.0,89,0.00,,,0.36,Wunderground v.1.15,2013-03-01 01:00:00,
2013-02-28 20:10:00,31.1,28.0,29.95,NNW,345,6.0,8.0,88,0.00,,,0.36,Wunderground v.1.15,2013-03-01 01:10:00,
2013-02-28 20:15:00,31.0,27.9,29.95,NNW,339,6.0,8.0,88,0.00,,,0.36,Wunderground v.1.15,2013-03-01 01:15:00,
2013-02-28 20:20:00,31.0,28.1,29.96,NE,39,5.0,5.0,89,0.00,,,0.36,Wunderground v.1.15,2013-03-01 01:20:00,
2013-02-28 20:25:00,30.9,28.0,29.96,NW,314,4.0,7.0,89,0.00,,,0.36,Wunderground v.1.15,2013-03-01 01:25:00,
2013-02-28 20:30:00,30.9,27.8,29.96,NE,44,6.0,6.0,88,0.00,,,0.36,Wunderground v.1.15,2013-03-01 01:30:00,
2013-02-28 20:40:00,30.8,27.9,29.96,NE,37,6.0,6.0,89,0.00,,,0.36,Wunderground v.1.15,2013-03-01 01:40:00,
2013-02-28 20:45:00,30.8,27.7,29.96,NNW,348,6.0,6.0,88,0.00,,,0.36,Wunderground v.1.15,2013-03-01 01:45:00,
2013-02-28 20:50:00,30.8,27.9,29.97,NNE,20,5.0,5.0,89,0.00,,,0.36,Wunderground v.1.15,2013-03-01 01:50:00,
2013-02-28 20:55:00,30.8,27.7,29.97,NNE,28,5.0,6.0,88,0.00,,,0.36,Wunderground v.1.15,2013-03-01 01:55:00,
2013-02-28 21:00:00,30.9,27.8,29.97,NNW,332,5.0,5.0,88,0.00,,,0.36,Wunderground v.1.15,2013-03-01 02:00:00,
2013-02-28 21:10:00,31.0,27.6,29.97,NNE,23,4.0,4.0,87,0.00,,,0.36,Wunderground v.1.15,2013-03-01 02:10:00,
2013-02-28 21:15:00,31.0,27.6,29.98,NNW,339,4.0,4.0,87,0.00,,,0.36,Wunderground v.1.15,2013-03-01 02:15:00,
2013-02-28 21:20:00,31.1,27.7,29.98,NNE,26,4.0,4.0,87,0.00,,,0.36,Wunderground v.1.15,2013-03-01 02:20:00,
2013-02-28 21:25:00,31.1,27.7,29.98,NNW,348,3.0,4.0,87,0.00,,,0.36,Wunderground v.1.15,2013-03-01 02:25:00,
2013-02-28 21:30:00,31.0,27.3,29.98,NNW,342,4.0,9.0,86,0.00,,,0.36,Wunderground v.1.15,2013-03-01 02:30:00,
2013-02-28 21:40:00,31.0,27.3,29.98,NNE,18,4.0,7.0,86,0.00,,,0.36,Wunderground v.1.15,2013-03-01 02:40:00,
2013-02-28 21:45:00,31.0,27.6,29.98,NNW,327,4.0,7.0,87,0.00,,,0.36,Wunderground v.1.15,2013-03-01 02:45:00,
2013-02-28 21:50:00,31.0,27.6,29.98,NNE,27,4.0,4.0,87,0.00,,,0.36,Wunderground v.1.15,2013-03-01 02:50:00,
2013-02-28 22:00:00,30.9,27.2,29.98,NE,44,5.0,5.0,86,0.00,,,0.36,Wunderground v.1.15,2013-03-01 03:00:00,
2013-02-28 22:05:00,30.9,27.2,29.99,North,352,5.0,7.0,86,0.00,,,0.36,Wunderground v.1.15,2013-03-01 03:05:00,
2013-02-28 22:10:00,30.9,27.2,29.99,NNW,345,4.0,4.0,86,0.00,,,0.36,Wunderground v.1.15,2013-03-01 03:10:00,
2013-02-28 22:15:00,30.9,27.2,29.99,NE,47,4.0,5.0,86,0.00,,,0.36,Wunderground v.1.15,2013-03-01 03:15:00,
2013-02-28 22:25:00,30.8,26.8,29.99,NE,36,5.0,7.0,85,0.00,,,0.36,Wunderground v.1.15,2013-03-01 03:25:00,
2013-02-28 22:30:00,30.7,26.7,29.99,NW,310,5.0,5.0,85,0.00,,,0.36,Wunderground v.1.15,2013-03-01 03:30:00,
2013-02-28 22:35:00,30.7,26.7,29.99,NE,51,5.0,5.0,85,0.00,,,0.36,Wunderground v.1.15,2013-03-01 03:35:00,
2013-02-28 22:40:00,30.5,26.5,29.99,NW,318,5.0,5.0,85,0.00,,,0.36,Wunderground v.1.15,2013-03-01 03:40:00,
2013-02-28 22:45:00,30.4,26.4,29.99,NNW,336,6.0,6.0,85,0.00,,,0.36,Wunderground v.1.15,2013-03-01 03:45:00,
2013-02-28 22:55:00,30.4,26.4,29.99,NNW,328,6.0,9.0,85,0.00,,,0.36,Wunderground v.1.15,2013-03-01 03:55:00,
2013-02-28 23:00:00,30.3,26.3,29.99,NNW,348,5.0,5.0,85,0.00,,,0.36,Wunderground v.1.15,2013-03-01 04:00:00,
2013-02-28 23:05:00,30.2,26.5,29.99,NW,323,5.0,5.0,86,0.00,,,0.36,Wunderground v.1.15,2013-03-01 04:05:00,
2013-02-28 23:10:00,30.2,26.5,29.99,NW,314,5.0,5.0,86,0.00,,,0.36,Wunderground v.1.15,2013-03-01 04:10:00,
2013-02-28 23:20:00,30.1,25.8,29.99,NNW,330,6.0,8.0,84,0.00,,,0.36,Wunderground v.1.15,2013-03-01 04:20:00,
2013-02-28 23:25:00,30.0,25.8,29.99,NW,304,6.0,8.0,84,0.00,,,0.36,Wunderground v.1.15,2013-03-01 04:25:00,
2013-02-28 23:30:00,30.0,25.8,29.99,NNW,328,5.0,5.0,84,0.00,,,0.36,Wunderground v.1.15,2013-03-01 04:30:00,
2013-02-28 23:35:00,30.0,25.8,29.99,North,354,6.0,6.0,84,0.00,,,0.36,Wunderground v.1.15,2013-03-01 04:35:00,
2013-02-28 23:40:00,29.9,25.7,29.99,NNW,331,7.0,7.0,84,0.00,,,0.36,Wunderground v.1.15,2013-03-01 04:40:00,
2013-02-28 23:50:00,29.8,25.6,29.99,NNW,329,5.0,5.0,84,0.00,,,0.36,Wunderground v.1.15,2013-03-01 04:50:00,
2013-02-28 23:55:00,29.8,25.6,29.99,NNW,338,3.0,6.0,84,0.00,,,0.36,Wunderground v.1.15,2013-03-01 04:55:00,